Location: Nairn
(57.5833°N, 3.8667°W)
Time: 02:18:23
(UTC+00:00)

Cosmos 2098 Rocket - Pass Details

Date: 07 August 2020
Orbit: 367 x 1184 km, 82.9° (Epoch: 19 September)

Event Time Altitude Azimuth Distance (km) Brightness Sun altitude
Rises 02:46:27 0° 347° (NNW) 2,765 7.1 -10.2°
Reaches altitude 10° 02:48:25 10° 346° (NNW) 1,968 6.2 -10.1°
Maximum altitude 02:52:47 81° 260° (W) 731 3.3 -9.7°
Drops below altitude 10° 02:58:21 10° 174° (S) 2,484 5.7 -9.3°
Sets 03:01:04 0° 174° (S) 3,553 6.5 -9.1°
